TIANMU-1 15

Last updated on Mon Jun 22 2026 00:02:46 GMT+0000 (Coordinated Universal Time)

1 58700U 24004A 26172.55454425 .00004449 00000+0 17035-3 0 9991 2 58700 97.4674 358.7457 0006262 346.3791 13.7278 15.27060875136444
UTC large
Height (km)
Speed (km/s)
/
Latitude / Longitude
Inclination (degrees)
Orbital Period (minutes)
Azimuth
Elevation
Range (km)
Doppler Factor

Next 0 passes for location: London (51.5072 / 0.1276)

No passes found over London.
TIANMU-1 15